Welcome to the New NWS' Forecast!
Most changes are behind the scenes, but click here for differences you might notice.

Regional Weather Roundup (RWR)

Issued by National Weather Service (NWS)

                            
000
ASUS42 KTBW 151416
RWRFL 
FLORIDA REGIONAL WEATHER ROUNDUP
NATIONAL WEATHER SERVICE TAMPA BAY RUSKIN FL
900 AM EST THU NOV 15 2018

NOTE: "FAIR" INDICATES FEW OR NO CLOUDS BELOW 12,000 FEET WITH NO
SIGNIFICANT WEATHER AND/OR OBSTRUCTIONS TO VISIBILITY.

FLZ001>010-012>015-112-114-115-151500-
PANHANDLE FLORIDA
  
CITY           SKY/WX    TMP DP  RH WIND       PRES   REMARKS
PENSACOLA      CLOUDY    36  31  82 NW17G24   30.23R WCI  26          
PENSACOLA NAS  PTSUNNY   38  32  79 N13G20      N/A  WCI  30          
MILTON NAS     CLOUDY    34  33  96 NW10      30.22  WCI  26          
CRESTVIEW      CLOUDY    36  33  89 NW14      30.22R WCI  27          
DUKE FIELD     CLOUDY    36  34  93 NW13      30.19R WCI  27          
VALPARAISO     CLOUDY    37  34  90 N13G20    30.20R WCI  28          
MARY ESTHER    CLOUDY    36  32  87 N15       30.20  WCI  26          
PANAMA CITY    CLOUDY    40  39  97 W9        30.16R FOG     WCI  34  
TYNDALL AFB    PTSUNNY   43  40  89 N8        30.18R WCI  38          
APALACHICOLA   CLOUDY    46  43  89 NW15      30.13R WCI  40          

STATION/POSITION SKY/WX   TEMP    WIND        PRES    WAVE   SWELL
                          AIR SEA DIR/SP/G            HT/PER HT/PER
                          (F)     (DEG/KT/KT) (MB)    (FT/S) (FT/S)
30.1N   87.6W                                 1024.3R   3/ 4
29.2N   88.2W                 77  330/ 23/ 31 1024.8R   7/ 6
PANAMA CITY BEAC NOT AVBL
TOWER C                    52     320/ 21/ 25 1020.0R

$$
FLZ011-016>038-118-127-128-134-139-239-151500-
NORTH FLORIDA
  
CITY           SKY/WX    TMP DP  RH WIND       PRES   REMARKS
MARIANNA       CLOUDY    42  41  96 NW14      30.13S WCI  35          
TALLAHASSEE    CLOUDY    49  47  93 NW9       30.10F WCI  45          
PERRY          CLOUDY    55  55  97 NW9       30.08R FOG              
LIVE OAK       CLOUDY    54  54 100 NW5       30.05F                  
CROSS CITY     CLOUDY    58  57  96 NW6       30.05S                  
LAKE CITY      CLOUDY    52  50  93 NW13G20   30.07R                  
GAINESVILLE    CLOUDY    56  52  86 W10       30.07R                  
WILLISTON        N/A    N/A N/A N/A MISG        N/A                   
MAYPORT NAS    PTSUNNY   55  51  86 N5        29.98F                  
JACKSONVILLE   PTSUNNY   52  49  89 NW8       30.00R                  
JAX NAS        PTSUNNY   54  51  90 E6        29.98F                  
JAX CECIL      PTSUNNY   55  52  88 NW5       30.00S                  
FERNANDINA BEA CLOUDY    52  49  90 E7        29.97F                  
ST AUGUSTINE   CLOUDY    57  53  86 VRB3      30.01F                  
PALM COAST     CLOUDY    59  57  94 CALM      30.00S FOG              

STATION/POSITION SKY/WX   TEMP    WIND        PRES    WAVE   SWELL
                          AIR SEA DIR/SP/G            HT/PER HT/PER
                          (F)     (DEG/KT/KT) (MB)    (FT/S) (FT/S)
SHELL POINT      NOT AVBL
KEATON BEACH               55     310/ 12/ 15 1018.7R
CEDAR KEY                  59     350/  4/  6 1018.0R
FERNANDINA                    70   10/  3/  6 1015.8F
30.7N   81.3W                 71                N/A     5/12   2/12
MAYPORT                    53 72   30/  4/  6 1015.6F
31.4N   80.9W              53 70  170/  4/  8 1015.2S   6/ 5   5/ 5
ST AUGUSTINE               56 72  330/ 11/ 13 1015.9R

$$
FLZ040-043>046-052-053-057-058-063-144-151500-
INTERIOR CENTRAL FLORIDA
  
CITY           SKY/WX    TMP DP  RH WIND       PRES   REMARKS
OCALA          CLOUDY    59  56  89 W8        30.04R                  
LEESBURG       FAIR      62  58  86 CALM      30.01F                  
SANFORD        FAIR      65  60  84 CALM      30.00F                  
ORLANDO EXEC   FAIR      64  60  87 NW3       30.01S                  
ORLANDO INTL   PTSUNNY   64  60  87 NW5       30.01F                  
KISSIMMEE      FAIR      65  61  87 N5        30.03S                  
WINTER HAVEN   FAIR      67  60  78 N7        30.04R                  
LAKELAND       MOSUNNY   64  61  88 CALM      30.03R                  
BARTOW         PTSUNNY   66  61  82 N5        30.02S                  
SEBRING        FAIR      68  63  84 N8        30.03S                  
OKEECHOBEE     DRIZZLE   66  64  94 NW9       30.02R                  

$$
FLZ041-047-054-059-064-141-147-151500-
EAST CENTRAL FLORIDA
  
CITY           SKY/WX    TMP DP  RH WIND       PRES   REMARKS
ORMOND BEACH   PTSUNNY   61  59  94 N7        30.00F                  
DAYTONA BEACH  FAIR      63  61  93 N5        30.00F                  
DELAND         FAIR      63  59  88 NW3       30.00F                  
NEW SMYRNA BEA PTSUNNY   63  59  88 NW8G16    30.01S                  
JFK SPACE CTR  PTSUNNY   68  64  88 N9        30.00R                  
TITUSVILLE     PTSUNNY   68  66  94 W6        30.01R FOG              
CAPE CANAVERAL PTSUNNY   68  65  89 W13       29.99R                  
PATRICK AFB    PTSUNNY   68  68 100 NW16      29.99R                  
MELBOURNE      PTSUNNY   69  66  90 W12       30.00R                  
VERO BEACH     LGT RAIN  72  70  93 W13       30.00R FOG              
FT PIERCE      PTSUNNY   74  70  87 W17       30.00R                  
STUART         MOSUNNY   81  73  78 S7        30.00R                  

STATION/POSITION SKY/WX   TEMP    WIND        PRES    WAVE   SWELL
                          AIR SEA DIR/SP/G            HT/PER HT/PER
                          (F)     (DEG/KT/KT) (MB)    (FT/S) (FT/S)
28.5N   80.2W              74     290/ 19/ 23 1015.5R   5/10   5/10
28.9N   78.5W              81 82  170/ 17/ 25 1015.5R
TRIDENT PIER               68 80  300/ 12/ 14 1017.2R
28.4N   80.5W                 79                N/A     3/11   2/11
27.5N   80.2W                 80                N/A     3/ 9   2/11

$$
FLZ050-056-061-142-242-148-248-149-249-151-251-155-255-
160-260-151500-
WEST CENTRAL FLORIDA
  
CITY           SKY/WX    TMP DP  RH WIND       PRES   REMARKS
CRYSTAL RIVER  CLOUDY    61  59  94 W6        30.05R                  
BROOKSVILLE    FAIR      65  59  81 NW10      30.05R                  
CLEARWATER AIR CLOUDY    68  61  77 NW8       30.03S                  
ST PETE CLEARW PTSUNNY   70  65  84 N5        30.03R                  
TAMPA INTL     PTSUNNY   68  63  84 N6        30.04R                  
TAMPA EXEC     FAIR      64  61  88 CALM      30.06R                  
PLANT CITY     FAIR      66  61  82 CALM      30.05R                  
MACDILL AFB    FAIR      68  63  83 N3        30.04R                  
PETER O KNIGHT CLOUDY   N/A N/A N/A CALM      30.05R                  
ST PETERSBURG  PTSUNNY   70  64  81 N5        30.02S                  
SARASOTA       FAIR      72  64  76 N8        30.01R                  
VENICE         FAIR      70  66  88 NE8       30.04R                  

STATION/POSITION SKY/WX   TEMP    WIND        PRES    WAVE   SWELL
                          AIR SEA DIR/SP/G            HT/PER HT/PER
                          (F)     (DEG/KT/KT) (MB)    (FT/S) (FT/S)
CLEARWATER BEACH                  340/  9/ 13   N/A
MIDDLE TAMPA BAY           69      10/  8/  8 1017.2R
VENICE                     69 78   30/ 10/ 13 1016.6R

$$
FLZ066-069-070-075>078-162-262-165-265-151500-
SOUTHWEST FLORIDA AND KEYS
  
CITY           SKY/WX    TMP DP  RH WIND       PRES   REMARKS
PUNTA GORDA    CLOUDY    68  62  81 N9        30.05R                  
FT MYERS       LGT RAIN  68  66  93 N9        30.02S                  
SOUTHWEST INTL CLOUDY    67  65  93 N7        30.03R                  
NAPLES         LGT RAIN  70  67  90 N7        30.02S FOG              
MARCO ISLAND   LGT RAIN  70  69  97 N18       30.02F                  
IMMOKALEE      MOSUNNY   68  66  94 N9        30.03S                  
MARATHON       FAIR      80  74  81 W6        29.99R                  
KEY WEST NAS   PTSUNNY   79  73  82 N12       30.00R                  
KEY WEST INTL  PTSUNNY   80  73  79 N14       30.01R                  

STATION/POSITION SKY/WX   TEMP    WIND        PRES    WAVE   SWELL
                          AIR SEA DIR/SP/G            HT/PER HT/PER
                          (F)     (DEG/KT/KT) (MB)    (FT/S) (FT/S)
NAPLES                     70 80              1016.6R
26.0N   85.6W              70 81  330/ 21/ 27 1019.4R   7/ 8   3/ 9
DRY TORTUGAS               77      10/ 21/ 23 1016.9R
SAND KEY                   77                 1016.1R
SOMBRERO KEY               78     210/  8/  9 1015.1R
LONG KEY                   78 81  320/  8/  9 1015.7R

$$
FLZ067-068-071>074-168-172>174-151500-
SOUTHEAST FLORIDA 
  
CITY           SKY/WX    TMP DP  RH WIND       PRES   REMARKS
W PALM BEACH   PTSUNNY   80  75  84 S5        29.99R                  
BOCA RATON       N/A     82  73  74 SW7       29.99R                  
FT LAUDER-EXEC FAIR      82  77  84 S7        29.99R                  
FT LAUDERDALE  PTSUNNY   81  77  88 VRB5      29.98R                  
POMPANO BEACH  LGT RAIN  83  74  74 S9        29.99R                  
PEMBROKE PINES FAIR      83  76  79 SW5       30.01R                  
OPA LOCKA      FAIR      81  77  88 S6        30.00R                  
MIAMI          PTSUNNY   80  77  90 SW5       30.00R                  
WEST KENDALL   FAIR      81  76  84 S3        30.00R                  
HOMESTEAD      CLOUDY    80  76  87 SW7       29.99R                  

STATION/POSITION SKY/WX   TEMP    WIND        PRES    WAVE   SWELL
                          AIR SEA DIR/SP/G            HT/PER HT/PER
                          (F)     (DEG/KT/KT) (MB)    (FT/S) (FT/S)
PORT EVERGLADES            82     170/  7/ 11 1015.4R
VIRGINIA KEY               82 83  160/  7/  9 1015.5R
LAKE WORTH                 81 81  180/ 11/ 13 1016.7R
FOWEY ROCKS                82 81  160/ 11/ 12 1015.7R
SETTLEMENT POINT           81     170/ 10/ 14 1015.6R

$$